This demonstration page uses our WeatherBlox Daily Observations layout. Learn more.

Left ArrowRight Arrow

39.51506, -84.39828

Hourly Observations for January 31, 2017

Temp ( °F °C ) Dew Point ( °F °C ) Humidity (%) Winds ( mph kmh ) Pressure ( in mb ) Visibility ( mi km ) Precip ( " mm )
12:53 am 00:53 Clear 32 0 19 -7.2 59 59 S 12 19 29.68 1005 10 16 0.00 0.00
1:53 am 01:53 Clear 33 0.6 20 -6.7 58 58 S 13 20 29.66 1004 10 16 0.00 0.00
2:53 am 02:53 Clear 36 2.2 24 -4.4 62 62 SSW 13 20 29.64 1004 10 16 0.00 0.00
3:53 am 03:53 Mostly Cloudy 39 3.9 28 -2.2 65 65 SW 15 24 29.63 1003 10 16 0.00 0.00
4:53 am 04:53 Cloudy 41 5 30 -1.1 65 65 WSW 13 20 29.64 1004 10 16 0.00 0.00
5:53 am 05:53 Cloudy 42 5.6 31 -0.6 65 65 W 18 30 29.65 1004 10 16 0.00 0.00
6:53 am 06:53 Cloudy 41 5 29 -1.7 62 62 W 24 39 29.68 1005 10 16 0.00 0.00
7:53 am 07:53 Cloudy 40 4.4 30 -1.1 68 68 W 20 31 29.71 1006 10 16 0.00 0.00
8:53 am 08:53 Cloudy 40 4.4 30 -1.1 68 68 W 17 28 29.74 1007 10 16 0.00 0.00
9:53 am 09:53 Cloudy 40 4.4 30 -1.1 68 68 WSW 15 24 29.77 1008 10 16 0.00 0.00
10:53 am 10:53 Cloudy 40 4.4 30 -1.1 68 68 W 15 24 29.80 1009 10 16 0.00 0.00
11:53 am 11:53 Cloudy 41 5 30 -1.1 65 65 W 18 30 29.81 1010 10 16 0.00 0.00
12:53 pm 12:53 Cloudy 41 5 30 -1.1 65 65 WSW 18 30 29.82 1010 10 16 0.00 0.00
1:06 pm 13:06 Cloudy 41 5 30 -1.1 65 65 WSW 20 31 29.83 1010 10 16 0.00 0.00
1:53 pm 13:53 Cloudy 41 5 29 -1.7 62 62 WSW 14 22 29.82 1010 10 16 0.00 0.00
2:53 pm 14:53 Cloudy 42 5.6 28 -2.2 58 58 W 16 26 29.83 1010 10 16 0.00 0.00
3:53 pm 15:53 Cloudy 42 5.6 28 -2.2 58 58 W 18 30 29.84 1011 10 16 0.00 0.00
4:53 pm 16:53 Mostly Cloudy 42 5.6 29 -1.7 60 60 W 14 22 29.88 1012 10 16 0.00 0.00
5:53 pm 17:53 Cloudy 42 5.6 29 -1.7 60 60 W 12 19 29.91 1013 10 16 0.00 0.00
6:53 pm 18:53 Mostly Clear 41 5 29 -1.7 62 62 W 9 15 29.93 1014 10 16 0.00 0.00
7:53 pm 19:53 Clear 40 4.4 30 -1.1 68 68 WSW 5 7 29.95 1014 10 16 0.00 0.00
8:53 pm 20:53 Mostly Cloudy 40 4.4 30 -1.1 68 68 WSW 8 13 29.96 1015 10 16 0.00 0.00
9:53 pm 21:53 Clear 39 3.9 30 -1.1 70 70 SW 7 11 29.95 1014 10 16 0.00 0.00
10:53 pm 22:53 Clear 39 3.9 30 -1.1 70 70 SW 8 13 29.96 1015 10 16 0.00 0.00
11:53 pm 23:53 Mostly Cloudy 39 3.9 30 -1.1 70 70 SW 9 15 29.97 1015 10 16 0.00 0.00

Powered by AerisWeather